CZ-4C DEB, 43421

Orbit data source: Space-Track

CZ-4C DEB, 43421 is space debris in LEO originally from a launch on Wed, 10 Dec 2014 UTC launched from the Jiuquan Satellite Launch Center, China (JSC). Debris objects in space refer to the collection of defunct objects orbiting the Earth. Examples of debris include non-operational satellites, rocket bodies, and fragments generated from explosions, collisions, or faulty payload assembly.

Loading next visibility...
Identifier
43421, 2014-080K
Orbit
LEO
Country
Flag of CNCN / PRC
Related business
Manufacturer
SAST
Mission
Spacecraft
Bus & Motor
Unknown
Mass
Unknown
Launch date (UTC)
2014-12-10 (11 years ago)
Launch vehicle
Unknown
Launch site
Jiuquan Satellite Launch Center, China (JSC)
Object type
Payload
Rocket body
Debris
Shape & HBR
Unknown shape, 0.1 m
Radar Cross Section
Small (<0.1 m²)

Expand to show TLE details & history
Last TLE update: 17 hours ago

TLE from 17 hours ago
0 CZ-4C DEB
1 43421U 14080K   26062.09597009  .00000063  00000-0  17362-3 0  9993
2 43421  63.3828 243.2011 0368714  10.6946 350.1653 13.44756707474916
Epoch: 2026-03-03T02:18Z
TLE epoch observation values (Epoch: 2026-03-03T02:18:11.815Z)
Latitude
-0.00004°
Longitude
47.77191°
Altitude
822.293 km
Speed
7.576 km/s
True Right ascension
16h 12m 48s
True Declination
0° 00' 00"
Sunlit
Object was in daylight at epoch
Visualization orbit readout
Latitude
Unknown
Longitude
Unknown
Altitude
Unknown
Speed
Unknown
Apparent Right ascension
Unknown
Apparent Declination
Unknown
Sunlit
N/A
Visualization observer readout
Local Sidereal Time
23:04:28
Azimuth
Unknown
Elevation
Unknown
Doppler factor
Unknown
Orbital elements
Apogee altitude
1,365.819 km
Perigee altitude
815.065 km
Semi-major axis
7,468.579 km
Eccentricity
0.03687
Inclination
63.3828°
RAAN
243.2011°
Arg. of periapsis
10.6946°
True anomaly
349.40938°
Mean anomaly
350.1653°
Eccentric anomaly
349.79086°
Mean motion
3.36269 °/min
Orbital period
107.06 mins
BSTAR
0.00017362
Loading maneuver chart data...
Computing Atmospheric mass density...
Loading historical data...
Loading historical data...
Loading historical data...
Loading historical data...
Loading historical data...
Loading historical data...
Loading historical data...

Documentation

Showing up to 5 results
|